"Time","Temp","Dewpoint","Humidity","Pressure","Direction","Speed","Gust","Precip","PrecipRate"
"00:04:58","51.3","34","51.3","30.31","156","0.2","1.2","0.00","0.00"
"00:09:59","51.8","33.8","50.3","30.31","158","1","3.5","0.00","0.00"
"00:14:58","51.9","33.8","50","30.31","159","0.5","2.3","0.00","0.00"
"00:19:56","51.9","33.7","49.8","30.31","161","0","3","0.00","0.00"
"00:24:57","51.8","33.7","50","30.31","184","0.8","3.5","0.00","0.00"
"00:29:56","51.3","34.4","52.3","30.31","182","0.8","4","0.00","0.00"
"00:34:57","50.5","34","53","30.30","180","0.5","3.5","0.00","0.00"
"00:39:59","49.8","34.2","54.8","30.30","169","1.3","3.5","0.00","0.00"
"00:44:57","49.3","33.9","55.1","30.30","164","1.4","3.5","0.00","0.00"
"00:49:58","49.5","33.2","53.4","30.30","157","1.7","4","0.00","0.00"
"00:54:57","50.1","33.2","52.2","30.30","152","1.1","3.5","0.00","0.00"
"00:59:56","50.5","33.5","51.9","30.30","141","0.9","3.5","0.00","0.00"
"01:04:56","50.9","32.7","49.6","30.30","147","1.3","5","0.00","0.00"
"01:09:59","51.5","32.7","48.5","30.30","158","1.1","4.6","0.00","0.00"
"01:14:58","51.8","32.5","47.5","30.30","151","0.9","3.5","0.00","0.00"
"01:19:56","51.9","32.8","48","30.29","153","0.8","2.3","0.00","0.00"
"01:24:57","51.4","34","51.4","30.29","162","0.5","4","0.00","0.00"
"01:29:58","50.6","32.7","50.1","30.29","162","0.3","2","0.00","0.00"
"01:34:59","50.2","33.3","52.1","30.29","162","0","0","0.00","0.00"
"01:39:58","49.5","35","57.1","30.29","162","0","0","0.00","0.00"
"01:44:56","48.4","35.5","60.9","30.30","162","0","0","0.00","0.00"
"01:49:58","47.2","34.6","61.3","30.30","162","0","0","0.00","0.00"
"01:54:59","46.2","34.2","62.8","30.30","149","0","3","0.00","0.00"
"01:59:56","45.5","32.9","61.2","30.30","149","0.6","3.5","0.00","0.00"
"02:04:58","45.6","32.9","61.2","30.29","149","0.2","2","0.00","0.00"
"02:09:57","46.1","32.5","58.9","30.29","149","0.2","2.3","0.00","0.00"
"02:14:59","46.3","34.2","62.5","30.29","149","0","1.2","0.00","0.00"
"02:19:57","45.8","34.5","64.7","30.29","149","0","1.2","0.00","0.00"
"02:24:58","45","34.2","65.8","30.29","149","0.1","1.2","0.00","0.00"
"02:29:56","44.4","33.9","66.4","30.29","149","0","1.2","0.00","0.00"
"02:34:57","44.2","33.5","65.7","30.29","149","0","0","0.00","0.00"
"02:39:59","44","33.4","66","30.29","149","0","0","0.00","0.00"
"02:44:56","43.9","34.1","68.1","30.29","149","0","0","0.00","0.00"
"02:49:58","43.6","34.1","69.2","30.29","149","0","0","0.00","0.00"
"02:54:57","43.2","34.3","70.7","30.29","149","0","0","0.00","0.00"
"02:59:59","42.9","33.6","69.5","30.29","149","0","0","0.00","0.00"
"03:04:57","42.8","33.7","70","30.27","149","0","0","0.00","0.00"
"03:09:57","43.2","33.1","67.5","30.27","148","0.4","2.3","0.00","0.00"
"03:14:59","43.8","33.8","67.6","30.27","148","0.5","2.3","0.00","0.00"
"03:19:58","43.7","34.3","69.3","30.27","148","0.6","2.3","0.00","0.00"
"03:24:56","43.3","34","69.5","30.27","148","0.2","2.3","0.00","0.00"
"03:29:57","43.2","33.7","69","30.28","148","0","1.2","0.00","0.00"
"03:34:59","43","34.1","70.8","30.28","148","0.1","1.2","0.00","0.00"
"03:39:58","42.3","34.1","72.6","30.28","148","0.2","1.2","0.00","0.00"
"03:44:57","41.9","33.4","71.8","30.28","148","0.4","2.3","0.00","0.00"
"03:49:59","42.3","33.5","70.9","30.28","148","0.1","1.2","0.00","0.00"
"03:54:56","42.2","33.8","72","30.28","148","0","1.2","0.00","0.00"
"03:59:59","41.8","33.4","71.8","30.28","148","0.5","2.3","0.00","0.00"
"04:04:55","41.7","33.4","72.2","30.28","148","0","1.2","0.00","0.00"
"04:09:58","41.4","33.1","72.2","30.28","148","0","1.2","0.00","0.00"
"04:14:57","41.4","33.2","72.6","30.29","148","0.1","1.2","0.00","0.00"
"04:19:58","41.2","33.2","72.8","30.29","150","1","3.5","0.00","0.00"
"04:24:56","41.3","33.2","72.7","30.29","154","0.9","3.5","0.00","0.00"
"04:29:58","41.2","33.3","73.3","30.29","158","0.6","2.3","0.00","0.00"
"04:34:56","41.2","33.3","73.3","30.29","133","0.5","2.3","0.00","0.00"
"04:39:59","41.5","33.9","74.1","30.29","132","0","1.2","0.00","0.00"
"04:44:57","42.2","33.5","70.9","30.29","132","0.2","1.2","0.00","0.00"
"04:49:58","43.3","34","69.5","30.29","132","0.3","1.2","0.00","0.00"
"04:54:59","44","34.5","69.1","30.29","132","0","1.2","0.00","0.00"
"04:59:56","44.4","33.6","65.7","30.29","132","0.4","2.3","0.00","0.00"
"05:04:57","45.4","33.8","63.6","30.29","150","1","3.5","0.00","0.00"
"05:09:59","46.4","34.5","63","30.29","160","0.5","2.3","0.00","0.00"
"05:14:58","46.6","34.4","62.2","30.29","160","0.2","1.2","0.00","0.00"
"05:19:59","46.8","33.6","60","30.29","161","0.5","2.3","0.00","0.00"
"05:24:56","47.2","34","60","30.29","161","0.2","1.2","0.00","0.00"
"05:29:58","47.2","35.2","62.9","30.30","161","0.1","1.2","0.00","0.00"
"05:34:56","46.8","35","63.1","30.30","161","0.1","1.2","0.00","0.00"
"05:39:59","46.6","34.3","62","30.30","161","0.3","1.2","0.00","0.00"
"05:44:57","46.7","34.1","61.3","30.30","162","0.1","1.2","0.00","0.00"
"05:49:59","46.9","34.5","61.8","30.30","162","0","0","0.00","0.00"
"05:54:57","46.9","34.8","62.6","30.30","162","0","1","0.00","0.00"
"05:59:59","46.7","34.9","63.4","30.30","161","0.5","2.3","0.00","0.00"
"06:04:57","46.2","35.1","65.1","30.30","161","0.3","2.3","0.00","0.00"
"06:09:56","45.7","35","65.9","30.30","161","0.1","1.2","0.00","0.00"
"06:14:57","45.5","34.8","66.2","30.31","161","0.1","1.2","0.00","0.00"
"06:19:59","45.1","35.2","68.2","30.31","161","0.1","1.2","0.00","0.00"
"06:24:57","44.5","35.3","70","30.31","161","0.1","1.2","0.00","0.00"
"06:29:56","44","34.4","68.7","30.32","161","0","0","0.00","0.00"
"06:34:58","44.3","33.7","66.1","30.32","161","0","1.2","0.00","0.00"
"06:39:57","44.7","34","65.8","30.32","161","0.4","3","0.00","0.00"
"06:44:59","45.3","33.9","64.2","30.32","161","0.6","3.5","0.00","0.00"
"06:49:57","45.7","35.3","66.7","30.32","161","0.1","2","0.00","0.00"
"06:54:59","45.6","35","66.1","30.32","163","0.9","3","0.00","0.00"
"06:59:59","45.5","35","66.5","30.32","163","0.8","3.5","0.00","0.00"
"07:04:59","45.3","34.7","66","30.32","163","0.6","2.3","0.00","0.00"
"07:09:58","45.4","35.1","66.9","30.32","163","0.2","2.3","0.00","0.00"
"07:14:57","45.3","34.5","65.7","30.32","159","0.6","3","0.00","0.00"
"07:19:57","45.4","34.8","66.3","30.32","159","0.3","2.3","0.00","0.00"
"07:24:59","45","34.8","67.2","30.32","159","0.8","2.3","0.00","0.00"
"07:29:57","45","34.9","67.5","30.32","160","0","1.2","0.00","0.00"
"07:34:58","45.5","35.4","67.4","30.32","160","0","1.2","0.00","0.00"
"07:39:56","46.3","35","64.5","30.32","160","0","1.2","0.00","0.00"
"07:44:58","47.7","35.4","62.3","30.32","158","0.6","2.3","0.00","0.00"
"07:49:56","49.1","36.7","62.3","30.32","160","0.5","2.3","0.00","0.00"
"07:54:58","50.1","37.2","61.2","30.32","200","1","4","0.00","0.00"
"07:59:57","51.1","37.1","58.6","30.32","200","1.8","4","0.00","0.00"
"08:04:57","52.1","37.2","56.7","30.32","164","1.9","5","0.00","0.00"
"08:09:59","53","37.1","54.6","30.32","183","2.4","5","0.00","0.00"
"08:14:57","53.8","37.5","54","30.32","200","2.6","7","0.00","0.00"
"08:19:57","54.4","37.5","52.8","30.32","190","2.8","6","0.00","0.00"
"08:24:57","54.9","37.1","51.1","30.32","175","3","6","0.00","0.00"
"08:29:58","55.3","37.6","51.1","30.32","194","2.7","6","0.00","0.00"
"08:34:59","55.6","38.6","52.8","30.32","193","2.7","6","0.00","0.00"
"08:39:56","55.8","37.8","50.7","30.32","172","3.1","7","0.00","0.00"
"08:44:59","56.1","37.9","50.3","30.32","191","2.8","6.9","0.00","0.00"
"08:49:59","56.4","38.4","50.9","30.31","186","2.6","6","0.00","0.00"
"08:54:58","56.8","38.8","50.8","30.31","196","2.4","4","0.00","0.00"
"08:59:58","57.4","38.8","49.8","30.31","186","2.4","5","0.00","0.00"
"09:04:57","58.1","39.3","49.6","30.31","185","2.7","5","0.00","0.00"
"09:09:59","58.7","39.4","48.7","30.31","195","2.8","5","0.00","0.00"
"09:14:57","59.3","39.7","48.1","30.31","176","1.8","5","0.00","0.00"
"09:19:58","60","39.8","47.2","30.30","200","3","6","0.00","0.00"
"09:24:59","60.6","39.7","46.1","30.30","176","2.5","5","0.00","0.00"
"09:29:59","61.3","39.6","44.8","30.30","190","2.7","6","0.00","0.00"
"09:34:56","61.9","40.3","45","30.30","203","2.6","6","0.00","0.00"
"09:39:58","62.4","40","43.8","30.30","194","3.3","6","0.00","0.00"
"09:44:58","62.9","40.1","43.1","30.30","175","2.5","5","0.00","0.00"
"09:49:58","63.5","40.9","43.6","30.30","195","2.8","5","0.00","0.00"
"09:54:59","64.1","40.9","42.7","30.30","206","2.6","5","0.00","0.00"
"09:59:59","64.7","40.9","41.7","30.30","201","3.1","5","0.00","0.00"
"10:04:59","65.2","40.4","40.2","30.30","194","3.4","8.1","0.00","0.00"
"10:09:57","65.5","40","39.2","30.30","188","2.5","5","0.00","0.00"
"10:14:57","66.3","42.1","41.3","30.30","200","2","5","0.00","0.00"
"10:19:57","67.3","41.3","38.8","30.29","157","2.1","4.6","0.00","0.00"
"10:24:58","68.1","41.9","38.7","30.29","163","2.1","4","0.00","0.00"
"10:29:57","68.7","41.5","37.3","30.29","170","3.1","7","0.00","0.00"
"10:34:57","69","42.3","37.9","30.28","166","3","8","0.00","0.00"
"10:39:58","69.4","42","37.1","30.28","131","3","6.9","0.00","0.00"
"10:44:58","69.8","42.7","37.5","30.28","193","3.3","6","0.00","0.00"
"10:49:58","70.6","42.2","35.8","30.27","179","3.9","10","0.00","0.00"
"10:54:57","71.2","40.8","33.3","30.27","181","4.6","11","0.00","0.00"
"10:59:42","71.5","41.1","33.3","30.27","192","5.7","12","0.00","0.00"
"11:04:56","72","39.7","31","30.26","162","4.8","11.5","0.00","0.00"
"11:09:59","72.1","40","31.2","30.26","182","3.9","10.4","0.00","0.00"
"11:14:57","72.3","40.7","31.8","30.26","182","4.5","10","0.00","0.00"
"11:19:57","72.6","39.4","30","30.25","185","6.1","14","0.00","0.00"
"11:24:57","72.9","39","29.3","30.25","185","5.6","14","0.00","0.00"
"11:29:57","73.2","39.4","29.4","30.25","188","6.9","15","0.00","0.00"
"11:34:58","73.7","40.1","29.8","30.24","196","4.4","10","0.00","0.00"
"11:39:56","73.9","39.9","29.4","30.24","181","5.2","11.5","0.00","0.00"
"11:44:57","74","39.4","28.6","30.24","194","5.5","11.5","0.00","0.00"
"11:49:57","74.2","40.4","29.6","30.23","201","4.8","12","0.00","0.00"
"11:54:58","74.4","41","30.1","30.23","152","4","13","0.00","0.00"
"11:59:59","74.8","40.7","29.3","30.23","179","5.3","13","0.00","0.00"
"12:04:56","75.2","40.5","28.7","30.23","196","5.5","12","0.00","0.00"
"12:09:58","75.2","40.8","29.2","30.23","202","5.4","11.5","0.00","0.00"
"12:14:59","75.2","40.3","28.6","30.23","169","5.5","10.4","0.00","0.00"
"12:19:59","75.5","41.5","29.6","30.22","208","5.8","11","0.00","0.00"
"12:24:59","75.9","40.7","28.3","30.22","184","5","14","0.00","0.00"
"12:29:59","76.1","41","28.5","30.22","198","6.4","13.8","0.00","0.00"
"12:34:58","76.4","40.4","27.6","30.22","199","6.8","12","0.00","0.00"
"12:39:58","76.3","40.8","28","30.22","198","6.5","14","0.00","0.00"
"12:44:58","76.4","41","28.1","30.22","193","5.1","9.2","0.00","0.00"
"12:49:59","76.5","41","28","30.20","171","3.9","11.5","0.00","0.00"
"12:54:59","76.5","40.7","27.8","30.20","182","4.3","13","0.00","0.00"
"12:59:56","76.9","42.6","29.4","30.20","178","4.2","13","0.00","0.00"
"13:04:59","77.6","41.3","27.4","30.19","182","5.7","13","0.00","0.00"
"13:09:58","77.7","41.6","27.7","30.19","191","5.4","15","0.00","0.00"
"13:14:57","78","42.2","28","30.19","196","5.9","15","0.00","0.00"
"13:19:58","78.2","41.6","27.1","30.18","195","7.4","18.4","0.00","0.00"
"13:24:59","77.9","41.7","27.5","30.18","174","6.7","13","0.00","0.00"
"13:29:59","78","42.2","28","30.18","184","6","13","0.00","0.00"
"13:34:56","78.2","42.6","28.2","30.18","203","7.5","12.7","0.00","0.00"
"13:39:58","78.3","42.5","28","30.18","209","6.9","13","0.00","0.00"
"13:44:59","78.5","42.3","27.6","30.18","201","6.5","14","0.00","0.00"
"13:49:59","78.9","42.8","27.7","30.18","206","6","13","0.00","0.00"
"13:54:59","79.2","43.4","28.1","30.18","209","6.3","12","0.00","0.00"
"13:59:59","79.3","42.1","26.8","30.18","190","6.6","13","0.00","0.00"
"14:04:56","79.1","41.4","26.1","30.16","173","6.7","15","0.00","0.00"
"14:09:57","78.9","42.2","27.2","30.16","172","6.4","12","0.00","0.00"
"14:14:58","78.8","42.2","27.3","30.16","190","7.2","14","0.00","0.00"
"14:19:55","78.7","42.2","27.3","30.15","201","7.9","16.1","0.00","0.00"
"14:24:59","79","43.5","28.5","30.15","216","7.9","16.1","0.00","0.00"
"14:29:59","79.3","43.4","28","30.15","215","7.2","12","0.00","0.00"
"14:34:59","79.4","42.9","27.4","30.15","218","6.1","13","0.00","0.00"
"14:39:56","79.4","43.1","27.6","30.15","216","7.1","14","0.00","0.00"
"14:44:56","79.2","42.3","27","30.15","199","7.7","13","0.00","0.00"
"14:49:59","79.1","42.7","27.5","30.15","197","7.1","13","0.00","0.00"
"14:54:59","79","42.8","27.7","30.15","201","8.4","15","0.00","0.00"
"14:59:57","78.7","42.8","28","30.15","192","7.6","16","0.00","0.00"
"15:04:59","78.6","42.8","28.1","30.15","192","7.2","15","0.00","0.00"
"15:09:57","78.7","42.8","28","30.15","191","6.9","17.3","0.00","0.00"
"15:14:55","78.9","42.7","27.6","30.15","187","5.7","14","0.00","0.00"
"15:19:59","78.9","42.1","27","30.15","166","6.5","14","0.00","0.00"
"15:24:59","78.7","42.4","27.5","30.15","187","7.4","15","0.00","0.00"
"15:29:56","78.5","41.5","26.8","30.15","180","6.9","15","0.00","0.00"
"15:34:57","78.5","41.8","27.1","30.13","191","7.2","15","0.00","0.00"
"15:39:56","78.5","41.4","26.7","30.13","178","6.8","16.1","0.00","0.00"
"15:44:58","78.5","41.7","27","30.13","186","5.3","11.5","0.00","0.00"
"15:49:56","78.5","42.2","27.5","30.13","186","6.1","12","0.00","0.00"
"15:54:59","78.7","42","27.2","30.13","187","5.3","12","0.00","0.00"
"15:59:56","78.8","41.9","26.9","30.13","199","8.9","16.1","0.00","0.00"
"16:04:58","78.6","41.3","26.5","30.13","208","8.8","16.1","0.00","0.00"
"16:09:56","78.1","40.3","26","30.13","201","9.8","20","0.00","0.00"
"16:14:58","77.6","39.8","25.8","30.13","193","8.6","16.1","0.00","0.00"
"16:19:59","77.1","40","26.4","30.13","186","6.9","15","0.00","0.00"
"16:24:56","77.1","40","26.5","30.13","193","7.4","12","0.00","0.00"
"16:29:57","77.6","40.6","26.7","30.13","183","6","12","0.00","0.00"
"16:34:58","77.6","39.8","25.7","30.13","183","5.2","13","0.00","0.00"
"16:39:56","77.1","39.7","26.2","30.13","197","6.5","14","0.00","0.00"
"16:44:58","76.7","39.8","26.6","30.13","187","5.1","13","0.00","0.00"
"16:49:59","76.9","40.5","27.1","30.12","209","5.5","13","0.00","0.00"
"16:54:56","76.7","40.1","26.8","30.12","183","6.9","17.3","0.00","0.00"
"16:59:57","76.4","39.9","27","30.12","201","5.7","11.5","0.00","0.00"
"17:04:56","75.8","39.4","27","30.12","195","7.4","15","0.00","0.00"
"17:09:58","75.3","39.3","27.3","30.12","185","4.9","11.5","0.00","0.00"
"17:14:57","74.9","39.5","27.9","30.12","188","5.2","12","0.00","0.00"
"17:19:58","74.6","39.5","28.2","30.11","198","5.3","12","0.00","0.00"
"17:24:59","74.7","39.6","28.2","30.11","191","5.3","11","0.00","0.00"
"17:29:56","74.9","40","28.4","30.12","194","3.5","14","0.00","0.00"
"17:34:58","74.9","40.2","28.7","30.12","201","4.1","13.8","0.00","0.00"
"17:39:56","74.7","39.7","28.4","30.12","196","4.6","12","0.00","0.00"
"17:44:58","74.5","39.5","28.3","30.13","202","4.7","11.5","0.00","0.00"
"17:49:56","74.2","39.2","28.3","30.13","202","4.8","11.5","0.00","0.00"
"17:54:58","73.9","39.6","29","30.13","199","4.2","7","0.00","0.00"
"17:59:59","73.5","39.4","29.1","30.13","204","3.9","10.4","0.00","0.00"
"18:04:58","73.1","39.6","29.8","30.13","200","4.5","9.2","0.00","0.00"
"18:09:56","72.9","39.6","30","30.13","207","6.1","12","0.00","0.00"
"18:14:59","72.9","39.7","30.2","30.14","207","7.3","14","0.00","0.00"
"18:19:58","72.9","39.6","30","30.14","201","7.2","19","0.00","0.00"
"18:24:56","73","39.7","30","30.14","201","8.6","19.6","0.00","0.00"
"18:29:56","72.9","39.6","30","30.15","210","6.2","12","0.00","0.00"
"18:34:59","72.6","39.7","30.4","30.15","212","5.8","11.5","0.00","0.00"
"18:39:59","72.2","39.8","30.9","30.15","204","4.8","11.5","0.00","0.00"
"18:44:58","71.7","39.8","31.4","30.15","204","4.1","10","0.00","0.00"
"18:49:57","71.6","39.4","31.2","30.15","202","5.7","10.4","0.00","0.00"
"18:54:59","71.3","39.8","31.8","30.15","207","4.2","10.4","0.00","0.00"
"18:59:57","71","39.6","32","30.15","204","5.1","9.2","0.00","0.00"
"19:04:57","70.8","39.8","32.4","30.15","196","4","9.2","0.00","0.00"
"19:09:59","70.5","39.2","32","30.15","196","4.2","10.4","0.00","0.00"
"19:14:59","70.5","39.7","32.6","30.15","200","3.4","10","0.00","0.00"
"19:19:58","70.2","39.6","32.8","30.15","205","4.5","10.4","0.00","0.00"
"19:24:58","70.1","39.6","33","30.15","206","5.4","10.4","0.00","0.00"
"19:29:57","70.3","39.6","32.8","30.15","204","5.1","10","0.00","0.00"
"19:34:56","70.2","39.7","33","30.14","198","5.1","10.4","0.00","0.00"
"19:39:57","70.1","39.9","33.4","30.14","225","4.6","10","0.00","0.00"
"19:44:56","69.6","40.3","34.4","30.16","311","4.3","9.2","0.00","0.00"
"19:49:58","69.6","41.9","36.6","30.16","319","4.1","9.2","0.00","0.00"
"19:54:58","69.4","43","38.3","30.16","258","2.2","4","0.00","0.00"
"19:59:57","68.4","43.7","40.9","30.16","237","2.9","5","0.00","0.00"
"20:04:57","68","44.4","42.5","30.16","275","1.5","4.6","0.00","0.00"
"20:09:56","67.7","44.7","43.4","30.16","299","1.2","2.3","0.00","0.00"
"20:14:57","67.4","44.8","44.2","30.16","299","0.3","1.2","0.00","0.00"
"20:19:56","67.2","45.1","44.9","30.16","299","0","0","0.00","0.00"
"20:24:56","67","45.8","46.5","30.16","299","0.4","2.3","0.00","0.00"
"20:29:59","66.8","45.9","47","30.16","299","0.1","1.2","0.00","0.00"
"20:34:58","66.5","45.6","47","30.16","299","0","0","0.00","0.00"
"20:39:59","66.1","45.8","48","30.16","299","0","0","0.00","0.00"
"20:44:58","65.6","45.7","48.5","30.16","223","0.4","4","0.00","0.00"
"20:49:57","64.8","44.7","48.1","30.16","223","0","1.2","0.00","0.00"
"20:54:57","64.2","45.2","50.1","30.16","223","0.1","1.2","0.00","0.00"
"20:59:56","63.7","45.3","51.1","30.16","223","0.5","2.3","0.00","0.00"
"21:04:56","63.2","45.3","52","30.15","223","0.1","2.3","0.00","0.00"
"21:09:59","62.7","45.2","52.8","30.15","223","0","1.2","0.00","0.00"
"21:14:57","62","44.9","53.5","30.15","223","0","0","0.00","0.00"
"21:19:56","61.4","45.1","55","30.15","223","0","0","0.00","0.00"
"21:24:59","60.9","45.2","56.1","30.15","223","0","1.2","0.00","0.00"
"21:29:59","60.3","45","57","30.15","223","0","1.2","0.00","0.00"
"21:34:59","59.7","44.7","57.8","30.15","223","0.1","1.2","0.00","0.00"
"21:39:59","59.2","44.8","58.7","30.15","223","0","1.2","0.00","0.00"
"21:44:59","58.9","44.6","59","30.15","223","0.1","1.2","0.00","0.00"
"21:49:59","58.7","44.3","58.8","30.15","223","0","0","0.00","0.00"
"21:54:59","58.4","44.1","58.9","30.15","223","0","0","0.00","0.00"
"21:59:58","58.2","44.1","59.4","30.15","223","0","0","0.00","0.00"
"22:04:55","57.8","44.3","60.8","30.15","223","0","0","0.00","0.00"
"22:09:59","57.2","44.3","61.9","30.15","223","0.1","3","0.00","0.00"
"22:14:59","56.8","43.8","61.9","30.15","223","0.7","3.5","0.00","0.00"
"22:19:58","56.4","44","63","30.15","223","0.3","1.2","0.00","0.00"
"22:24:58","56","44","64.1","30.15","223","0.3","3.5","0.00","0.00"
"22:29:56","55.6","43.5","63.6","30.15","223","0","0","0.00","0.00"
"22:34:56","55.7","43.1","62.4","30.15","223","0","1.2","0.00","0.00"
"22:39:56","56","43.3","62.2","30.15","223","0.3","2.3","0.00","0.00"
"22:44:56","55.9","43.8","63.8","30.15","223","0.2","1.2","0.00","0.00"
"22:49:59","55.5","43.4","63.6","30.15","223","0.2","1.2","0.00","0.00"
"22:54:59","55.3","42.6","62.1","30.15","223","0.2","1.2","0.00","0.00"
"22:59:57","55.3","42.5","62","30.15","190","0.3","3","0.00","0.00"
"23:04:57","55.2","42.4","62","30.15","129","0.4","2","0.00","0.00"
"23:09:59","55","42.9","63.7","30.15","129","0.5","2.3","0.00","0.00"
"23:14:56","54.5","43.3","65.6","30.15","135","0.5","4","0.00","0.00"
"23:19:58","54.4","42.8","64.7","30.15","155","0.6","3.5","0.00","0.00"
"23:24:57","54.9","41.9","61.6","30.15","161","0.6","2.3","0.00","0.00"
"23:29:56","55.6","42","60.4","30.15","161","0.1","2.3","0.00","0.00"
"23:34:59","56.2","42","58.9","30.14","154","0","0","0.00","0.00"
"23:39:58","56.9","42.1","57.5","30.14","179","0.4","5","0.00","0.00"
"23:44:57","57.5","42.3","56.8","30.14","179","0.6","4.6","0.00","0.00"
"23:49:56","58.1","42.3","55.7","30.14","180","0.8","3.5","0.00","0.00"
"23:54:58","58.5","42.5","55.2","30.14","178","1.2","3.5","0.00","0.00"
"23:59:57","59","42.4","54.1","30.14","179","0.9","4","0.00","0.00"
